www.pogodaiklimat.ru
Время
(UTC), дата
20:54 14.11
21:54 14.11
22:54 14.11
23:54 14.11
23:55 14.11
00:54 14.11
01:54 14.11
02:54 14.11
03:54 14.11
04:54 14.11
05:54 14.11
06:54 15.11
07:54 15.11
08:54 15.11
09:54 15.11
10:54 15.11
11:54 15.11
12:54 15.11
13:54 15.11
14:54 15.11
15:54 15.11
16:54 15.11
17:54 15.11
18:54 15.11
19:54 15.11
20:54 15.11
21:54 15.11
22:54 15.11
23:54 15.11
00:54 15.11
01:54 15.11
02:54 15.11
03:54 15.11
04:54 15.11
05:54 15.11
06:54 16.11
07:54 16.11
08:54 16.11
09:54 16.11
10:54 16.11
11:54 16.11
12:54 16.11
13:54 16.11
14:54 16.11
15:54 16.11
16:54 16.11
17:54 16.11
18:54 16.11
Ветер
(напр.,м/с)
Видим. Явления Облачность Т
(С)
Тd
(С)
f
(%)
Тe
(С)
Тes
(С)
Комфортность P
(гПа)
Po
(гПа)
Тmin
(С)
Tmax
(С)
R
(мм)
R24
(мм)
S
(см)
СЗ 3 16 км 8/0 3900 м
[средняя верхняя]
+13.9 +0.6 40 +13 +15 1019.9 874.5
С 3 16 км 8/0 3300 м
[средняя верхняя]
+13.9 +0.6 40 +13 +14 1019.5 874.2
З 1 16 км 8/0 3000 м
[средняя верхняя]
+11.1 +1.1 50 +11 +11 1019.6 874.0 +11.1 +16.1
0 16 км ясно +9.4 +1.1 56 +9 +9 1019.9 874.0
З 1 16 км 8/0 3300 м
[средняя верхняя]
+11.1 +1.1 50 +11 +11 1019.6 874.0 +11.1 +16.1
З 2 16 км 8/0 3600 м
[средняя верхняя]
+7.2 -0.6 58 +5 +5 1020.4 874.2
0 16 км 8/0 3900 м
[средняя верхняя]
+7.2 0.0 60 +7 +7 1020.7 874.5
ЮЗ 2 16 км 8/0 3900 м
[средняя верхняя]
+6.7 -0.6 60 +4 +4 1019.9 874.2
В 2 16 км 8/0 3600 м
[средняя]
+6.7 -0.6 60 +4 +4 1019.6 874.2
ЮВ 3 16 км 8/0 4200 м
[средняя верхняя]
+6.1 -0.6 62 +3 +3 1019.5 874.2 +5.6 +11.1
0 16 км 8/0 4200 м
[средняя верхняя]
+4.4 0.0 73 +4 +4 1019.5 874.2
СЗ 1 16 км 8/0 4200 м
[средняя верхняя]
+5.0 -0.6 67 +3 +3 1019.2 874.2
0 16 км 5/0 6000 м
[средняя верхняя]
+4.4 -0.6 70 +4 +4 1018.8 874.0
0 16 км 8/0 6000 м
[средняя верхняя]
+3.9 0.0 76 +3 +3 1019.4 874.0
0 16 км 5/0 6000 м
[средняя верхняя]
+3.9 +0.6 79 +3 +3 1018.9 873.7
ЮВ 1 16 км 5/0 7500 м
[верхняя]
+3.9 0.0 76 +2 +2 1019.2 873.7 +2.8 +6.1
З 1 16 км 5/0 7500 м
[верхняя]
+2.8 0.0 82 0 0 1019.8 873.7
0 16 км 8/0 4500 м
[средняя]
+2.8 0.0 82 +2 +2 1020.5 874.2
0 16 км 8/0 4200 м
[средняя верхняя]
+2.8 +1.1 89 +2 +2 1020.8 874.2
0 16 км 5/0 4200 м
[средняя верхняя]
+5.6 +2.2 79 +5 +5 1021.0 874.8
СЗ 3 16 км 8/0 4200 м
[средняя верхняя]
+9.4 +2.2 61 +7 +8 1020.5 874.8
С 3 16 км 5/0 4200 м
[средняя верхняя]
+11.7 +2.2 52 +10 +12 1020.6 875.1 +1.7 +11.7
0 16 км 8/0 4200 м
[средняя]
+14.4 +1.7 42 +14 +17 1019.7 874.5
СЗ 2 16 км 8/0 4200 м
[средняя]
+16.1 +0.6 35 +16 +18 1018.6 874.0
СЗ 3 16 км 8/0 4200 м
[средняя]
+16.1 +2.8 41 +16 +18 1017.9 873.4
СЗ 3 16 км 8/0 4200 м
[средняя]
+17.2 +0.6 33 +17 +18 1017.6 873.1
СЗ 4 16 км 8/0 3900 м
[средняя]
+16.1 +2.2 39 +15 +16 1017.6 872.8
З 4 16 км 8/0 4200 м
[средняя верхняя]
+12.2 -0.6 41 +10 +10 1018.5 873.4 +11.7 +17.8
СЗ 2 16 км 8/0 3900 м
[средняя верхняя]
+11.1 -1.1 43 +10 +10 1019.1 873.4
нст 2 16 км 8/0 4500 м
[средняя верхняя]
+9.4 0.0 52 +8 +8 1019.5 873.7
0 16 км 8/0 4500 м
[средняя верхняя]
+8.3 0.0 56 +8 +8 1020.0 873.7
ЮВ 3 16 км 8/0 4500 м
[средняя верхняя]
+7.2 -0.6 58 +5 +5 1020.0 874.0
0 16 км 8/0 4200 м
[средняя верхняя]
+6.1 -0.6 62 +6 +6 1020.3 874.5
ЮЗ 3 16 км 8/0 3900 м
[средняя]
+5.0 -0.6 67 +2 +2 1019.8 874.2 +4.4 +12.2
0 16 км 8/0 3300 м
[средняя]
+5.6 0.0 67 +5 +5 1020.1 874.8
ЮВ 1 16 км 8/0 3300 м
[средняя]
+6.1 0.0 65 +5 +5 1019.6 874.8
Ю 4 16 км 8/0 4500 м
[средняя]
+6.1 0.0 65 +3 +3 1018.9 874.2
С 6 16 км 8/0 3600 м
[средняя]
+5.6 0.0 67 +1 +1 1020.1 875.4
Ю 3 16 км 2/0 4500 м
[средняя]
+4.4 -0.6 70 +1 +1 1020.0 875.1
Ю 2 16 км 2/0 4500 м
[средняя]
+3.9 -0.6 72 +1 +1 1020.9 875.1 +3.9 +6.7
ЮВ 2 16 км ясно +3.3 -1.1 73 0 0 1021.7 875.7
0 16 км 5/0 4500 м
[средняя]
+2.8 -1.1 75 +2 +2 1022.8 876.3
0 16 км 5/0 4500 м
[средняя]
+3.3 -1.1 73 +3 +3 1023.7 876.9
Ю 2 16 км 5/0 2400 м
[средняя]
+6.7 -1.1 57 +4 +4 1024.0 877.7
Ю 2 16 км 5/0 2400 м
[средняя верхняя]
+9.4 -1.1 48 +8 +8 1024.1 877.7
З 3 16 км 5/0 2250 м
[средняя верхняя]
+12.8 -1.1 38 +12 +13 1023.9 877.7 +2.2 +12.8
СЗ 4 16 км 5/0 2100 м
[средняя]
+12.8 0.0 41 +11 +12 1023.4 877.4
СЗ 4 16 км 5/2 1500 м
[средняя]
+13.3 -0.6 38 +12 +14 1022.9 877.1
Местоположение метеостанции Salt Lake City International Airport: широта 40.7707 долгота -111.9650 высота над уровнем моря 1288 м.
В архиве по умолчанию представлена погода в Солт-Лейк-Сити за последние 1-2 суток. Обновление информации о фактической погоде в базе происходит ежечасно! Архивные данные за месяц целиком и за предыдущие месяцы Вы можете получить, выбрав интересующий диапазон дат из раскрывающегося списка и нажав кнопку "Ввод!".
Внимание! Архив погоды МЕТАР в базе сайта по станциям, не включенным в климатический монитор, хранится не более 60 дней. Нет смысла пытаться выбрать более раннюю дату.
*Определитесь, кто Вы:
Внимание! Время в таблицах - всемирное. Для получения местного времени необходимо прибавить поправку, которая равна ч.
Смотрите также архив погоды в соседних городах и на ближайших метеорологических станциях:
Партнеры нашего сайта:      
Пояснения к столбцам:
  • Ветер - указаны скорость ветра в м/с - средняя за 10 мин, порывы в срок и между сроками (в фигурных скобках) и направление, откуда дует ветер: С - северный,
  • СВ - северо-восточный, В - восточный, ЮВ - юго-восточный, Ю - южный, ЮЗ - юго-западный, З - западный, СЗ - северо-западный.
  • Видимость - горизонтальная дальность видимости в метрах или километрах. При видимости от 1 до 10 км при отсутствии осадков обычно наблюдается дымка, при ухудшении видимости до 1 км и менее - туман. В сухую погоду видимость может ухудшаться дымом, пылью или мглою.
  • Явления - указаны атмосферные явления, наблюдавшиеся в срок или в последний час перед сроком; фигурными скобками обозначены явления, наблюдавшиеся между сроками (за 1-3 часа до срока); квадратными скобками обозначены град или гололедные отложения с указанием их диаметра в мм.
  • Облачность - указаны через наклонную черту общая и нижняя облачность в баллах и высота нижней границы облаков в метрах; квадратными скобками обозначены формы облаков: Ci - перистые, Cs - перисто-слоистые, Cc - перисто-кучевые, Ac - высококучевые, As - высокослоистые, Sc - слоисто-кучевые, Ns - слоисто-дождевые, Cu - кучевые, Cb - кучево-дождевые. Подробнее классификацию облаков см. в Атласе облаков (PDF).
  • T - Температура воздуха - температура, измеренная на высоте 2 м над землей.
  • Td - Температура точки росы - температура, при понижении до которой содержащийся в воздухе водяной пар достигнет насыщения.
  • f - Относительная влажность воздуха - влажноcть воздуха, измеренная на высоте 2 м над землей.
  • Te - Эффективная температура - температура, которую ощущает одетый по сезону человек в тени. Характеристика душности погоды. При расчете учитывается влияние влажности воздуха и скорости ветра на теплоощущения человека.
  • Tes - Эффективная температура на солнце - температура, которую ощущает человек, с поправкой на солнечный нагрев. Характеристика знойности погоды. Зависит от высоты солнца над горизонтом, облачности и скорости ветра. Ночью, в пасмурную погоду, а также при ветре 12 м/с и более поправка равна нулю.
  • P - Атмосферное давление - приведенное к уровню моря атмосферное давление.
  • Po - Атмосферное давление - измеренное на уровне метеостанции атмосферное давление.
  • Tmin - Минимальная температура - минимум температуры воздуха на высоте 2 м над землей.
  • Tmax - Максимальная температура - максимум температуры воздуха на высоте 2 м над землей.
  • R - Количество осадков - Количество выпавших осадков за период времени, мм. При наведении курсора мыши на число - период времени, за который выпало указанное количество осадков.
  • R24 - Количество осадков - Количество выпавших осадков за 24 часа, мм.
  • S - Снежный покров - Высота снежного покрова, см. При наведении курсора мыши на число - состояние снежного покрова и степень покрытия местности в баллах.